Location: Newark
(35.2672°N, 80.7344°W)
Time: 11:20:41
(UTC+00:00)

Transit 2A Rocket - Pass Details

Date: 04 February 2020
Orbit: 591 x 912 km, 66.7° (Epoch: 25 February)

Event Time Altitude Azimuth Distance (km) Brightness Sun altitude
Rises 07:05:14 0° 182° (S) 2,849 - -62.7°
Reaches altitude 10° 07:07:41 10° 172° (S) 1,928 - -62.3°
Maximum altitude 07:11:26 30° 110° (ESE) 1,064 - -61.7°
Drops below altitude 10° 07:15:12 10° 49° (NE) 1,928 - -61.0°
Sets 07:17:39 0° 39° (NE) 2,849 - -60.6°
